Dewpoint
71 72 73 71 71 70 71 69 58 61 60 55 57 60 58 64 62 61 61 64 62 66 62 65 64 65 63 60 60 63 63 60 62 52 54 66 70 71 72 72 72 73 74 74 74 74 75 75 76 76 76 77 76 77 77 77 77 77 77 77 77 76 76 76 77 77 76 76 76 76 75 76 76 75 75 75 75 75 74 75 75 75 75 75 75 75 75 75 75 75 75 74 74 74 74 74 74
69 69 72 73 73 71 65 69 60 58 58 56 58 62 59 61 61 59 59 63 61 63 63 64 67 65 65 61 61 62 63 65 66 66 67 69 70 71 72 72 72 73 73 74 74 74 74 75 76 76 76 76 77 77 77 77 77 77 77 76 76 76 76 77 77 76 77 76 76 76 75 75 75 75 75 75 75 75 75 75 75 75 75 75 75 75 75 75 75 75 75 75 74 74 74 74 74
69 69 70 71 71 70 68 67 56 56 54 52 57 60 62 59 59 62 62 63 60 64 62 63 64 66 65 64 61 61 61 66 66 67 67 69 69 70 71 72 72 72 73 74 74 74 74 75 77 77 76 77 77 77 77 77 77 77 76 76 76 76 76 77 77 77 77 76 76 75 75 75 75 75 75 76 75 75 75 75 75 75 75 75 75 75 75 75 75 75 75 75 75 75 74 74 74
69 69 71 69 66 70 63 62 59 57 54 55 56 57 60 60 61 64 63 63 60 61 61 60 60 59 62 60 60 62 61 63 66 67 67 68 68 70 71 71 72 72 73 73 74 75 75 76 77 77 77 77 77 77 77 76 77 76 76 76 76 77 76 77 76 76 76 75 75 75 75 75 75 75 75 74 74 75 75 75 75 75 75 75 75 75 76 75 75 75 75 75 75 74 75 74 74
69 71 73 71 69 61 62 61 59 59 55 58 57 56 59 60 62 63 62 59 58 58 58 57 58 60 61 61 60 60 62 65 65 67 67 68 69 70 70 71 71 72 72 72 74 75 75 77 77 77 77 77 77 77 77 76 76 76 77 76 77 77 77 77 77 76 76 76 75 75 75 75 75 75 74 74 74 74 75 75 75 75 75 75 75 75 75 75 75 75 75 75 75 75 75 74 74
70 74 75 74 65 70 65 59 58 58 59 59 56 55 58 64 63 63 59 58 60 60 59 57 56 57 58 60 62 61 63 61 65 66 67 68 69 69 70 71 70 70 71 73 74 74 75 78 77 77 77 77 77 77 76 77 76 77 77 77 76 76 76 77 76 76 76 75 75 75 75 75 75 75 75 75 75 74 74 76 76 75 75 75 75 75 76 75 75 75 75 75 75 75 75 75 75
72 71 72 70 69 69 60 59 58 59 57 60 57 59 58 61 61 61 58 59 59 62 61 58 57 58 58 60 60 61 64 64 65 66 67 68 69 69 69 69 69 70 71 73 74 75 76 77 78 77 77 77 77 77 77 77 77 77 77 76 76 76 76 76 76 76 76 76 76 75 75 75 75 75 75 75 75 75 75 75 75 74 74 75 75 75 75 75 75 75 75 75 75 75 75 75 75
73 69 68 64 62 63 59 60 59 62 58 56 57 62 63 61 62 59 58 58 58 60 58 58 58 60 58 61 60 63 64 66 66 67 68 68 69 68 68 68 68 70 72 73 74 75 78 78 77 77 77 77 77 77 77 77 77 76 77 77 76 76 76 76 76 76 75 75 75 75 75 75 75 75 75 75 75 74 75 75 75 75 75 75 75 75 75 75 74 74 74 74 74 74 74 75 75
73 69 70 65 59 61 59 57 56 60 60 60 58 64 65 62 61 64 59 58 58 58 58 56 56 56 59 61 61 63 65 66 66 68 68 68 68 67 67 68 68 70 72 73 74 76 77 77 77 77 77 78 78 77 77 77 77 77 77 76 76 77 77 76 76 76 76 75 75 75 75 75 75 75 75 75 75 75 75 75 75 75 75 75 75 75 75 75 75 75 75 74 74 74 75 75 75
70 69 64 62 61 56 55 53 56 57 55 57 60 63 64 60 60 63 56 57 57 57 57 57 57 59 60 60 61 64 65 66 66 66 67 67 67 66 67 68 69 72 73 74 75 76 76 78 77 77 77 77 78 77 77 77 77 77 77 77 76 76 76 76 76 75 75 75 75 75 75 75 75 75 75 75 75 75 75 74 74 74 74 74 75 75 75 75 74 74 75 75 74 75 75 75 75
65 68 68 60 57 55 55 54 54 54 59 64 60 63 65 61 62 59 56 56 57 57 57 58 59 60 61 61 63 65 66 66 66 65 66 66 66 66 67 68 70 73 74 74 75 76 76 76 76 76 77 77 78 77 77 77 77 77 77 76 76 76 76 76 75 75 75 75 75 75 75 75 75 75 75 75 75 75 75 74 74 74 74 74 74 74 74 75 75 75 75 75 75 75 75 75 75
63 63 64 58 56 56 56 57 54 53 57 61 59 63 68 63 61 57 55 56 57 57 57 58 57 59 60 62 63 66 66 66 66 66 66 66 66 67 68 68 70 73 74 73 75 76 76 76 75 76 77 77 77 78 77 77 77 77 77 77 76 76 76 76 76 76 75 75 76 76 76 75 75 75 75 75 75 75 75 74 74 74 74 74 74 74 75 75 75 75 75 75 75 75 75 75 75
64 65 62 58 57 56 56 56 55 57 57 59 58 59 64 60 59 56 56 57 57 56 57 59 59 59 59 61 64 65 65 66 67 67 67 67 67 68 68 69 72 72 73 74 75 75 75 75 75 75 76 77 78 78 78 77 77 77 77 77 77 77 76 76 76 76 76 76 76 76 76 76 76 75 75 75 75 75 74 74 74 74 74 74 75 75 75 75 75 75 75 75 76 76 75 75 75
63 63 63 58 60 56 55 52 55 51 53 59 59 64 61 59 57 55 56 56 56 57 59 59 59 59 59 62 63 62 64 66 67 67 67 67 67 68 69 71 71 71 73 74 74 74 74 74 75 75 76 76 76 77 78 78 78 77 77 77 77 76 76 76 76 76 76 76 76 76 76 76 76 75 75 75 75 75 75 74 74 74 74 75 75 75 75 75 75 75 75 75 75 76 76 76 75
62 66 66 62 59 58 52 53 48 50 54 56 59 59 59 57 55 54 54 55 57 60 59 59 59 58 58 60 61 63 63 65 66 66 67 67 67 68 69 70 71 72 72 72 74 74 74 74 74 75 76 76 76 76 76 77 78 77 77 77 77 77 76 76 76 76 76 76 76 76 76 76 76 76 76 76 75 75 75 75 75 74 75 75 75 75 76 75 75 76 76 75 75 76 76 76 75
61 64 64 58 56 53 52 50 50 50 49 56 59 60 54 55 55 54 55 57 58 59 59 58 60 58 59 60 62 63 63 64 65 65 66 66 67 68 68 69 70 71 71 72 73 73 74 74 74 75 76 76 76 76 76 76 77 77 77 77 77 77 77 77 77 77 77 76 76 76 76 76 75 75 76 75 76 76 75 74 75 75 75 75 75 76 76 76 76 75 75 75 75 75 76 76 75
63 64 58 57 54 53 51 49 50 52 53 53 61 56 58 54 57 62 57 58 58 59 59 59 58 59 58 60 63 64 63 65 66 65 66 67 68 68 68 69 70 70 71 72 72 73 73 73 74 75 75 75 75 76 76 76 77 77 77 77 77 77 77 77 77 77 76 76 76 76 76 76 76 76 75 75 76 76 75 75 75 75 75 75 75 76 76 76 76 76 76 75 75 75 75 75 75
63 62 60 55 54 52 51 51 51 49 53 53 56 59 59 55 54 55 57 57 58 58 58 59 58 59 59 62 63 61 64 65 65 65 66 67 67 66 67 68 69 70 70 71 72 72 72 73 74 74 74 74 74 76 76 77 77 77 76 76 76 76 77 77 77 77 77 76 76 76 76 77 76 75 76 76 76 76 75 75 75 75 75 75 75 75 76 76 76 76 76 76 75 75 75 75 75
56 57 54 51 52 52 52 52 50 51 50 52 53 52 57 54 53 54 55 55 57 56 57 56 57 58 59 60 61 61 63 64 64 65 66 66 66 66 66 67 68 69 69 70 70 70 72 73 73 73 73 73 74 75 76 76 76 76 76 76 76 77 77 77 77 77 76 76 76 76 78 78 77 78 77 77 78 75 76 76 76 75 75 75 75 75 75 75 75 75 76 76 75 76 76 77 76
52 51 53 51 51 54 54 51 53 53 55 51 50 52 51 54 52 53 52 52 54 53 53 55 56 57 58 60 60 61 62 63 64 65 65 66 66 66 66 67 67 69 69 70 69 71 72 72 72 72 72 72 73 73 75 76 76 76 76 76 76 76 76 77 76 76 76 76 76 76 77 77 77 78 76 76 76 76 75 76 76 75 75 75 76 76 75 76 75 75 75 76 76 77 76 75 74
51 50 47 48 52 51 57 52 51 49 51 53 51 52 51 55 51 53 51 51 50 53 54 55 57 58 59 60 60 61 61 63 64 64 64 65 66 66 66 67 67 68 69 69 70 71 71 71 71 71 72 72 72 73 74 75 75 75 75 75 75 75 76 76 75 76 75 76 76 77 76 76 76 76 77 76 75 76 75 75 76 76 76 75 76 76 77 77 76 77 77 77 76 75 76 75 74
49 49 49 47 52 50 54 52 51 50 50 49 50 50 51 54 50 50 50 50 52 53 56 57 58 58 59 60 60 61 61 62 64 64 65 65 66 66 66 66 66 67 68 68 69 70 70 71 71 71 71 72 72 73 73 74 75 74 74 74 74 75 75 75 75 75 76 76 75 76 75 75 75 76 76 75 76 75 75 75 75 75 76 77 77 76 76 76 76 76 75 76 76 76 76 76 75
44 49 49 48 51 50 50 50 50 50 52 52 53 52 51 52 56 54 50 51 53 54 56 58 59 59 60 61 61 61 60 61 63 63 64 65 65 66 66 66 66 66 67 68 69 70 70 70 71 71 72 72 72 73 73 74 74 73 73 73 73 74 74 74 74 74 76 76 76 76 74 75 75 75 75 74 75 75 74 75 75 75 75 75 77 75 75 75 76 75 75 75 75 75 76 74 75
44 43 44 47 49 48 49 49 49 50 52 51 51 50 50 52 54 53 49 47 53 54 57 58 59 59 59 59 60 60 59 60 61 63 64 64 65 66 67 66 66 67 67 68 69 70 70 70 71 71 71 71 72 72 72 73 73 72 72 74 73 73 73 73 73 74 76 76 76 75 75 74 74 74 74 74 75 75 75 75 76 75 74 75 76 74 75 75 75 75 75 75 74 74 74 74 74
41 42 44 47 46 47 49 49 48 52 50 51 51 49 49 53 52 55 49 50 53 54 57 58 59 59 59 59 59 59 59 59 60 61 63 64 64 66 66 67 67 68 67 69 70 70 70 71 71 70 71 71 72 71 72 72 71 71 72 71 71 74 72 72 72 74 76 76 76 75 76 74 73 73 72 74 75 75 75 74 75 75 74 76 76 76 76 76 75 76 76 75 73 73 72 71 72
41 41 42 45 46 46 47 48 48 51 50 49 48 47 46 45 54 49 46 53 53 55 57 58 58 58 59 59 59 59 60 59 60 60 61 63 64 64 65 66 68 69 69 69 70 71 71 71 71 70 71 72 72 71 71 71 70 70 71 70 71 74 71 70 73 73 75 75 75 74 75 72 72 73 73 73 74 74 75 74 75 74 75 74 75 74 76 76 76 76 76 75 74 72 72 72 73
41 41 41 40 48 46 46 48 47 47 47 50 48 48 47 45 45 44 47 53 54 55 56 57 58 58 58 59 59 59 59 60 60 61 61 61 64 63 64 66 68 69 70 69 70 71 71 71 71 72 71 73 73 71 72 72 70 70 71 71 70 73 71 72 73 73 74 74 74 75 75 74 71 71 74 74 73 74 75 74 75 76 75 75 75 74 76 76 76 77 74 77 76 76 75 75 75
35 37 41 40 40 46 49 47 44 47 46 48 50 49 50 46 42 42 47 52 53 54 55 56 57 58 58 58 59 60 60 61 61 61 60 60 63 63 63 65 67 68 69 69 70 71 70 70 71 72 72 72 73 72 72 73 71 71 73 71 72 72 72 74 72 72 74 73 74 74 76 75 73 73 75 74 74 75 74 74 75 74 75 75 76 77 77 76 76 76 77 78 76 75 74 73 73
34 35 36 39 40 40 40 43 45 47 45 47 48 46 45 40 39 42 49 52 52 53 54 56 57 57 57 58 58 60 60 60 61 61 60 60 62 63 62 64 66 67 69 69 70 70 70 70 70 72 71 72 73 71 72 74 72 73 75 73 72 73 72 73 72 71 72 73 73 74 75 76 77 77 77 75 78 74 75 76 75 75 74 77 75 77 78 78 78 76 73 75 77 75 73 73 74
35 35 36 38 39 39 40 40 46 47 45 45 45 43 44 39 38 45 49 50 50 51 53 55 56 57 57 58 58 59 60 60 60 60 60 61 63 63 62 63 65 66 68 69 70 70 70 71 71 72 72 73 72 71 72 73 73 74 74 74 75 73 72 72 72 72 72 75 74 75 75 77 77 78 76 75 75 75 75 75 76 76 77 77 77 78 77 77 75 75 75 75 77 74 71 71 72
34 35 36 38 39 38 39 40 41 46 46 47 45 46 44 39 38 42 48 50 50 50 51 52 55 56 57 58 59 59 59 60 59 60 59 62 62 63 63 63 64 65 68 69 70 69 70 70 70 71 73 73 73 72 72 73 73 73 73 73 73 74 72 72 71 73 74 74 74 75 75 77 76 77 77 76 75 75 75 77 76 75 77 78 77 78 77 77 76 74 74 71 72 74 72 72 68
33 34 33 37 38 39 40 41 40 43 45 46 44 42 41 40 38 39 46 48 50 50 51 52 53 55 55 58 58 58 58 58 58 59 60 60 61 63 63 63 64 65 67 68 69 69 70 70 70 70 73 72 72 72 72 72 72 72 72 75 72 73 73 71 72 71 73 74 75 75 75 77 75 77 77 76 75 75 75 75 77 77 78 78 76 77 76 76 76 76 76 74 73 70 72 69 68
31 33 35 35 38 39 39 40 39 40 40 42 41 40 40 39 38 40 45 48 50 49 50 51 52 53 54 58 58 58 57 57 58 59 59 60 61 61 62 62 63 65 66 67 68 69 69 69 70 71 72 71 72 72 72 72 72 72 72 73 73 72 73 71 72 71 72 74 74 75 75 77 76 76 76 76 75 75 74 75 77 77 78 76 77 77 77 76 75 75 76 77 74 71 71 63 64
31 32 32 35 37 38 37 37 36 39 38 39 41 39 38 37 35 39 44 45 49 48 50 51 51 52 54 58 58 58 58 57 58 59 59 60 61 61 62 65 63 65 66 66 67 68 68 69 69 70 71 71 72 72 71 72 72 73 72 72 74 72 72 72 72 72 71 73 74 75 76 76 77 76 76 76 75 76 74 75 76 77 78 76 77 77 75 75 75 75 74 75 74 71 70 62 63
32 29 30 30 33 37 36 34 33 35 37 36 39 38 38 37 35 41 43 43 47 49 50 51 51 51 53 57 58 58 58 58 58 59 59 60 60 61 62 62 62 64 66 66 67 68 68 69 69 71 71 71 71 73 71 73 72 74 73 72 73 72 72 72 71 72 70 72 74 75 76 76 76 76 76 76 75 76 75 75 75 76 77 77 76 77 76 75 76 75 74 73 74 73 69 64 63
32 31 28 29 28 30 32 33 32 30 33 32 37 36 36 36 34 39 42 48 49 48 49 51 51 52 53 56 56 57 58 58 59 58 58 59 60 61 61 62 62 63 66 66 67 68 68 69 68 70 71 71 71 73 72 72 72 72 71 72 73 72 71 73 72 70 71 70 73 75 76 76 76 76 76 76 75 75 75 75 75 77 77 76 76 75 75 74 74 75 74 73 73 74 69 67 66
32 32 27 27 27 27 30 31 31 28 31 31 35 36 35 35 33 39 42 48 48 47 48 50 52 53 53 54 55 56 57 58 59 58 58 59 60 60 61 62 62 64 65 66 66 67 68 68 68 69 70 71 71 72 71 71 71 72 70 71 71 72 71 72 73 70 70 69 74 75 76 75 76 76 76 76 75 77 76 76 75 77 77 77 75 75 75 74 75 76 77 76 73 70 65 64 67
28 30 28 25 26 25 27 27 29 27 31 30 32 34 35 34 33 39 42 46 47 47 49 49 52 52 52 54 55 56 58 59 59 58 58 58 59 60 61 62 63 63 64 66 66 67 68 68 69 69 70 71 71 72 71 71 71 71 70 70 71 71 72 71 71 71 69 72 75 75 76 75 76 76 76 76 76 76 75 76 76 76 77 77 76 77 75 77 77 75 75 73 73 71 69 65 68
27 29 30 27 23 24 25 25 26 26 29 31 32 32 33 34 35 39 42 46 47 48 48 49 51 52 53 54 56 58 58 59 58 58 58 58 59 59 60 61 61 63 64 66 66 67 68 68 69 70 70 71 71 72 71 70 71 71 71 71 71 71 72 72 71 71 71 70 75 75 76 75 76 76 76 76 76 76 75 75 77 77 77 77 75 76 76 76 76 74 73 71 70 70 72 69 67
28 30 30 27 25 20 21 23 24 24 26 29 33 31 32 33 36 39 40 42 47 47 50 51 51 52 54 54 57 58 58 59 58 58 57 57 59 59 60 61 61 63 64 66 66 67 68 68 69 70 70 71 71 71 71 71 71 72 72 72 71 71 70 72 71 71 71 72 74 75 75 75 76 76 76 76 76 76 75 76 78 78 77 76 75 75 76 75 75 74 75 74 71 68 63 62 70
27 30 30 27 23 21 19 22 22 23 26 27 30 31 32 30 35 38 39 40 42 46 50 52 52 53 54 54 57 59 58 59 59 59 58 58 58 58 61 61 61 64 65 66 66 66 68 68 69 70 69 71 70 72 71 71 72 72 72 73 72 72 71 70 70 70 68 72 72 74 75 76 75 75 75 75 75 75 76 76 78 78 77 76 77 76 75 76 76 75 75 73 71 70 68 62 67
27 29 30 27 23 21 20 19 21 21 23 26 27 29 30 32 32 37 38 39 39 47 49 52 52 52 54 55 58 59 60 60 60 59 58 58 58 58 61 61 62 64 65 66 66 67 68 68 68 70 69 70 70 71 70 71 71 71 71 71 70 70 68 68 68 69 67 70 70 73 75 75 75 75 75 75 75 75 77 77 77 76 77 77 77 76 75 76 76 75 74 74 72 72 69 62 61
28 27 29 28 26 23 20 17 16 23 24 25 25 26 31 32 31 34 39 38 36 46 46 51 53 54 54 54 57 58 60 60 60 60 59 59 58 58 61 61 62 64 65 66 67 67 68 69 68 70 69 70 70 71 70 71 71 71 70 70 69 68 68 68 68 70 69 69 69 71 74 74 75 74 75 75 74 75 77 77 76 76 76 77 77 76 76 76 76 75 75 73 72 74 72 63 61
26 26 25 25 24 23 23 21 15 22 23 25 24 24 29 29 29 32 34 37 37 46 45 49 53 55 55 55 56 58 59 61 60 60 60 60 59 59 61 62 62 63 65 66 67 67 68 69 69 70 70 71 70 70 70 71 71 71 70 70 70 68 70 69 69 69 71 71 69 70 74 74 74 74 74 75 74 75 77 77 76 77 76 77 78 77 76 76 75 75 75 72 73 71 70 67 65
24 25 24 23 23 23 23 21 16 16 19 24 23 23 25 30 33 31 30 29 33 46 47 49 54 55 56 57 57 57 59 60 61 60 60 60 60 60 62 62 63 64 66 66 67 68 68 70 69 70 70 70 70 70 70 70 71 71 70 70 70 69 70 72 71 70 72 72 68 71 73 73 74 74 74 74 74 74 77 77 77 76 76 77 78 77 77 76 75 75 74 73 73 71 69 72 68
22 23 25 24 23 22 21 18 15 19 23 22 27 23 24 28 33 29 30 29 31 45 47 50 53 55 56 57 57 58 59 61 61 61 60 60 60 60 62 63 63 64 66 68 67 69 69 70 70 70 71 70 70 70 70 70 71 71 71 70 70 70 70 72 72 70 71 73 68 71 73 73 74 74 74 74 74 74 76 77 77 77 76 77 78 77 76 75 75 74 74 73 73 70 70 71 69
20 21 20 19 17 18 19 17 20 22 16 19 19 15 14 24 30 29 29 27 27 36 48 52 54 54 57 57 57 58 58 60 61 61 61 60 61 61 62 63 63 64 66 68 68 69 69 70 70 70 71 70 71 70 70 70 71 71 71 70 70 70 71 71 72 71 70 73 69 70 73 73 74 74 73 74 74 74 75 76 76 77 77 77 77 76 76 75 75 74 74 73 73 71 70 68 71
20 19 19 19 19 23 21 17 20 16 14 24 15 12 12 15 28 28 29 30 27 28 46 51 53 55 57 57 57 57 57 59 60 60 60 61 62 62 62 63 64 64 66 67 68 69 70 70 71 70 70 71 71 70 70 70 70 71 71 71 70 71 71 70 72 72 71 71 72 70 73 73 73 74 73 73 74 73 75 76 76 76 76 76 76 76 75 75 74 75 74 73 73 71 72 69 69
20 20 19 16 22 19 15 19 13 12 13 20 11 11 10 14 22 31 27 30 28 29 34 51 53 54 56 56 57 57 57 59 60 60 61 61 62 62 62 64 65 65 67 67 68 69 70 70 71 70 70 71 71 71 70 70 71 71 71 71 70 71 71 71 71 72 71 71 72 71 72 73 73 73 73 72 73 73 74 75 75 75 76 76 76 76 75 75 74 75 74 74 73 72 71 70 69
19 19 18 16 17 12 12 18 17 16 13 11 10 13 9 21 23 25 27 27 28 29 30 50 52 53 55 55 57 57 57 58 59 59 61 62 62 62 62 64 65 65 67 67 68 69 70 70 71 70 70 71 71 72 70 70 70 71 71 71 71 72 72 71 71 72 73 72 72 73 71 73 73 73 73 72 73 73 74 75 75 75 75 75 76 75 75 75 74 75 74 74 73 74 71 71 70
17 17 14 16 15 13 12 12 11 12 18 10 7 8 11 9 14 26 23 25 24 30 30 32 52 53 54 54 55 56 56 57 58 59 60 62 63 63 62 63 65 66 67 67 68 69 70 70 71 71 71 71 71 72 71 70 70 71 71 71 71 72 72 72 72 72 73 72 72 72 73 72 73 73 73 73 73 73 74 75 75 75 75 75 75 75 75 75 76 75 75 74 74 74 73 71 71
15 15 15 16 14 20 15 20 19 19 21 20 8 6 15 13 24 20 26 19 21 22 28 34 53 53 53 53 55 55 56 57 58 59 60 62 63 63 62 62 64 66 67 68 68 69 70 70 71 71 71 71 71 72 72 71 71 71 72 72 72 72 73 72 72 73 73 73 72 72 73 73 73 74 74 74 74 73 74 75 75 75 75 76 75 75 75 74 76 75 75 74 74 75 74 72 71
13 13 12 12 16 13 26 31 20 25 26 17 30 25 8 12 11 19 18 20 20 20 19 31 51 51 50 53 55 56 55 55 57 59 60 62 62 62 62 62 63 66 66 68 69 69 70 70 70 71 71 71 71 72 72 71 71 71 72 72 72 72 72 72 72 72 73 73 73 72 72 73 73 74 75 75 75 74 74 74 75 75 75 76 75 75 75 75 75 76 75 74 74 75 74 74 72
12 11 12 16 18 15 23 19 25 16 14 18 12 14 13 8 12 12 16 16 16 18 17 15 48 48 48 52 54 55 53 54 56 59 60 61 61 62 61 62 63 65 66 67 69 69 70 71 70 71 71 71 71 71 72 72 71 71 72 72 72 72 72 72 72 72 72 74 74 73 72 73 74 74 74 75 75 74 74 76 75 75 75 75 75 75 75 75 76 75 76 75 74 75 74 74 73
14 12 16 13 13 10 18 26 20 16 14 15 13 11 15 13 19 11 10 12 14 16 17 14 38 46 46 49 51 53 53 54 55 58 59 61 61 61 61 62 63 65 66 67 69 69 70 71 71 71 71 71 72 72 72 72 72 72 72 72 72 72 72 72 72 72 72 72 74 74 73 73 73 74 74 74 74 74 74 74 74 74 75 75 75 75 75 75 76 75 75 76 75 75 74 73 73
19 16 14 14 14 13 19 14 23 21 24 16 17 12 12 16 16 11 10 11 12 15 16 14 17 46 46 48 49 51 53 54 56 57 58 60 61 61 62 62 64 65 66 67 68 69 69 71 71 71 71 71 72 72 72 72 72 72 72 73 73 72 72 72 72 72 71 71 72 74 74 74 73 74 74 74 73 73 73 74 74 74 74 75 75 75 75 75 76 76 75 75 75 75 74 74 73
16 16 13 12 13 15 17 18 11 25 26 24 23 19 27 28 23 14 13 12 16 17 26 24 15 44 44 48 50 52 53 55 55 57 58 59 60 61 61 62 63 65 66 67 68 68 69 70 71 71 71 71 71 72 72 72 73 73 72 72 72 73 72 72 72 72 71 71 71 72 74 74 75 74 73 74 73 73 73 73 74 74 74 75 75 75 75 75 75 76 76 76 75 75 74 74 74
16 16 13 10 9 11 8 16 12 11 18 20 22 24 33 25 18 20 16 18 17 19 20 37 20 44 45 47 50 53 52 54 55 56 57 58 60 61 61 62 64 66 66 66 67 68 68 69 71 71 71 71 71 71 72 72 73 73 72 72 72 72 72 72 72 71 71 71 70 70 71 73 74 74 73 72 73 73 73 72 73 74 74 75 75 75 75 76 75 75 75 76 76 75 75 74 74